Terug naar catalogus

STARLINK-2292

ActiefCommunicatieVLEO
NORAD 48023·PAYLOAD·🇺🇸 United States

Gelanceerd Mar 24, 2021 vanaf Cape Canaveral Space Force Station

Loading…

Volgende Passages (komende 24 uur)

TLE

VersSource: CelesTrak SupGP

Epoch: Sep 14, 2026, 20:56 UTC

1 48023C 21024AY  26257.87270833  .00028060  00000+0  44929-3 0  2579
2 48023  53.1125 155.8667 0001740 172.4145  69.6716 15.52489635    14

Volg STARLINK-2292 in realtime met AllMySat

Download on the App Store